Content
SEND FEEDBACK

Daily
Averages
Monthly
Summary
United States of America

BALDWIN, FLORIDA


Home > North America > United States > Florida
Elevation: 27 meters     Latitude: 30 13N     Longitude: 081 52W

WEATHER
 
SELECT A DAY
Number of Records: 127,731;   Date Range: 10/16/00 - 7/23/14
 
SHARE

PRINT THIS DATA

[ ← Previous Day ]
WEATHER ALMANAC - 23 JANUARY, 2013
[ Next Day → ]
[ °F ]   °C
Weather ElementAverageHighLow
Temperature3 °C17 °C (3:50 pm)-2 °C (3:55 am)
Dewpoint-0.2 °C3 °C (5:50 pm)-4 °C (10:50 am)
Humidity85.1 %100 % (12:35 am)33 % (12:50 pm)
Barometer1027.4 hPa1030.8 hPa (10:50 am)1025.7 hPa (11:55 pm)
Wind Speed1.9 km/h13 km/h (9:50 am)
Weather ElementAverage
Visibility10.1 km
Wind DirectionENE (54.7 °)

Weather ElementTotal
Precipitation---
Heating Degree Days10.8 (Base 18.3)
Averaged from 43 records on 23 January, 2013
WEATHER CONDITIONS BREAKOUT
WIND DIRECTION BREAKOUT
WEATHER BY HOUR - 23 JANUARY, 2013
[ °F ]   °C
Local TimeTemperatureDewpointHumidityBarometerVisibilityWind DirectionWind SpeedGust SpeedPrecipitationEventsConditions
12:35 AM0 °C0 °C100 %1026.8 hPa4.8 kmCalmClear
12:55 AM0 °C0 °C100 %1026.8 hPa4.8 kmCalmClear
1:15 AM0 °C0 °C100 %1026.8 hPa4.8 kmCalmClear
1:35 AM0 °C-1 °C93 %1026.8 hPa4.8 kmCalmClear
1:55 AM0 °C-1 °C93 %1027.1 hPa6.4 kmCalmClear
2:15 AM-1 °C-1 °C100 %1027.1 hPa8 kmCalmClear
2:35 AM0 °C-1 °C93 %1027.1 hPa8 kmCalmClear
2:55 AM-1 °C-1 °C100 %1027.1 hPa6.4 kmCalmClear
3:15 AM-1 °C-2 °C93 %1027.1 hPa4.8 kmCalmClear
3:35 AM-1 °C-1 °C100 %1027.1 hPa4.8 kmCalmClear
3:55 AM-2 °C-2 °C100 %1027.1 hPa4.8 kmCalmClear
4:15 AM-2 °C-2 °C100 %1027.1 hPa3.2 kmCalmClear
4:35 AM-2 °C-2 °C100 %1027.1 hPa4 kmCalmClear
4:55 AM-2 °C-2 °C100 %1027.1 hPa3.2 kmCalmClear
5:15 AM-2 °C-2 °C100 %1027.1 hPa4 kmCalmClear
5:35 AM-2 °C-2 °C100 %1027.4 hPa4 kmCalmClear
5:55 AM-2 °C-2 °C100 %1027.4 hPa4 kmCalmClear
6:15 AM-2 °C-3 °C93 %1027.8 hPa3.2 kmCalmClear
6:35 AM-2 °C-2 °C100 %1028.1 hPa4.8 kmCalmClear
6:50 AM-2 °C-2 °C100 %1028.1 hPa16.1 kmCalmClear
7:50 AM-2 °C-3 °C93 %1029.1 hPa16.1 kmCalmClear
8:50 AM3 °C0 °C81 %1029.8 hPa12.9 kmNorth (360°)11.1 km/hClear
9:50 AM8 °C-3 °C46 %1030.1 hPa16.1 kmNorth (360°)13 km/hClear
10:50 AM10 °C-4 °C37 %1030.8 hPa16.1 kmNorth (360°)11.1 km/hClear
11:50 AM12 °C-3 °C35 %1030.1 hPa16.1 kmNorth (10°)9.3 km/hClear
12:50 PM14 °C-2 °C33 %1028.8 hPa16.1 kmNNW (330°)9.3 km/hClear
1:50 PM15 °C-1 °C34 %1027.1 hPa16.1 kmNNW (330°)9.3 km/hClear
3:50 PM17 °C1 °C34 %1026.4 hPa16.1 kmWNW (300°)9.3 km/hClear
4:50 PM17 °C2 °C37 %1026.1 hPa16.1 kmWNW (300°)9.3 km/hClear
5:50 PM14 °C3 °C48 %1026.4 hPa16.1 kmCalmClear
7:50 PM5 °C3 °C87 %1026.1 hPa16.1 kmCalmClear
8:15 PM4 °C3 °C93 %1026.1 hPa16.1 kmCalmClear
8:35 PM4 °C3 °C93 %1026.1 hPa16.1 kmCalmClear
8:55 PM4 °C3 °C93 %1026.4 hPa16.1 kmCalmClear
9:15 PM3 °C2 °C93 %1026.8 hPa16.1 kmCalmClear
9:35 PM3 °C2 °C93 %1026.8 hPa16.1 kmCalmClear
9:55 PM3 °C2 °C93 %1026.8 hPa14.5 kmCalmClear
10:15 PM3 °C2 °C93 %1026.8 hPa11.3 kmCalmClear
10:35 PM3 °C2 °C93 %1026.8 hPa8 kmCalmClear
10:55 PM3 °C2 °C93 %1026.8 hPa8 kmCalmClear
11:15 PM3 °C3 °C100 %1026.8 hPa9.7 kmCalmClear
11:35 PM3 °C3 °C100 %1026.4 hPa14.5 kmCalmClear
11:55 PM3 °C2 °C93 %1025.7 hPa9.7 kmCalmClear
Hourly data recorded from KVQQ, located 0 kilometers away from Baldwin, Florida







STORIES FROM OUR PARTNERS